www.pogodaiklimat.ru

Погода и климат >> Архив погоды >> Австралия >> Morawa Airport


ПОГОДА в Morawa Airport

  • Прогноз погоды в Morawa Airport
  • Монитор погоды в Morawa Airport
  • Климат города

АРХИВ ПОГОДЫ в Morawa Airport

Время (UTC), дата Ветер
(напр.,м/с)
 
Видим.   Явления Облачность Т
(С)
Тd
(С)
f
(%)
Тe
(С)
Тes
(С)
Комфортность P
(гПа)
Po
(гПа)
Тmin
(С)
Tmax
(С)
R
(мм)
R24
(мм)
S
(см)
19 10.07 штиль 0 н/о н/о +7.7 +7.7 100 +7 +7 1019.2 986.8
21 10.07 З 1 н/о н/о +6.5 +6.5 100 +5 +5 1019.2 986.8
22 10.07 З 2 н/о н/о +6.3 +6.3 100 +4 +4 1019.6 987.2
00 11.07 штиль 0 н/о н/о +8.4 +8.4 100 +7 +7 1020.8 988.4
01 11.07 ЮЗ 2 н/о н/о +12.8 +10.7 87 +12 +12 1021.2 988.8 +5.8
03 11.07 Ю 4 н/о н/о +17.1 +12.6 75 +17 +17 1021.2 988.8
04 11.07 ЮЗ 5 н/о н/о +18.2 +11.5 65 +18 +18 1020.5 988.1
06 11.07 ЮЗ 4 н/о н/о +18.7 +8.9 53 +19 +19 1019.3 986.9
07 11.07 ЮЗ 4 н/о н/о +19.8 +8.2 47 +21 +21 комфорт 1019.3 986.9
09 11.07 З 3 н/о н/о +18.2 +8.5 53 +19 +19 1019.2 986.8
10 11.07 ЮЗ 3 н/о н/о +16.0 +8.7 62 +16 +16 1019.5 987.1
12 11.07 З 3 н/о н/о +13.4 +10.6 83 +12 +12 1020.5 988.1
13 11.07 ЮЗ 3 н/о н/о +13.1 +11.0 87 +12 +12 1020.5 988.1 +20.4
15 11.07 Ю 2 н/о н/о +11.3 +10.5 95 +10 +10 1020.5 988.1
16 11.07 ЮЗ 1 н/о н/о +9.9 +9.9 100 +9 +9 1020.3 987.9
18 11.07 ЮЗ 2 н/о н/о +7.5 +7.5 100 +6 +6 1019.5 987.1
19 11.07 СЗ 1 н/о н/о +7.1 +7.1 100 +6 +6 1019.1 986.7
21 11.07 штиль 0 н/о н/о +6.0 +6.0 100 +5 +5 1018.2 985.9
22 11.07 С 2 н/о н/о +5.8 +5.8 100 +4 +4 1018.4 986.1
00 12.07 СЗ 1 н/о н/о +8.1 +8.1 100 +7 +7 1019.7 987.3
01 12.07 С 1 н/о н/о +12.0 +12.0 100 +13 +13 1020.0 987.6 +5.5
03 12.07 СЗ 3 н/о н/о +17.2 +6.4 49 +17 +17 1019.6 987.2
04 12.07 СЗ 3 н/о н/о +18.3 +7.1 48 +19 +19 1018.9 986.5
06 12.07 СЗ 4 н/о н/о +18.7 +6.9 46 +19 +19 1017.1 984.8
07 12.07 З 4 н/о н/о +18.5 +5.0 41 +19 +19 1017.0 984.7
09 12.07 З 4 н/о н/о +17.2 +5.8 47 +17 +17 1017.3 985.0
10 12.07 СЗ 2 н/о н/о +15.0 +7.3 60 +15 +15 1017.6 985.3
12 12.07 З 1 н/о н/о +10.9 +8.0 82 +11 +11 1018.1 985.8
13 12.07 С 2 н/о н/о +10.5 +8.4 87 +9 +9 1018.3 986.0 +19.0
15 12.07 С 3 н/о н/о +9.8 +8.6 92 +8 +8 1018.1 985.8
16 12.07 СЗ 3 н/о н/о +11.1 +9.9 92 +9 +9 1017.6 985.3
18 12.07 СЗ 3 н/о н/о +10.6 +10.6 100 +8 +8 1017.2 984.9
19 12.07 СЗ 3 н/о н/о +11.4 +11.4 100 +9 +9 1016.8 984.5
21 12.07 СЗ 3 н/о н/о +11.9 +11.9 100 +10 +10 1016.7 984.4
22 12.07 СЗ 4 н/о туман местами н/о +12.2 +12.2 100 +10 +10 1017.4 985.1
00 13.07 СЗ 2 н/о н/о +13.1 +13.1 100 +13 +13 1018.7 986.3
01 13.07 З 1 н/о {туман} н/о +14.5 +14.5 100 +15 +15 1019.3 986.9 +8.2
03 13.07 Ю 3 н/о н/о +16.5 +11.6 73 +16 +16 1019.5 987.1
04 13.07 ЮЗ 4 н/о н/о +15.5 +11.3 76 +15 +15 1019.2 986.8
06 13.07 З 1 н/о н/о +17.7 +10.8 64 +19 +19 1017.9 985.6
07 13.07 Ю 2 н/о н/о +17.1 +10.0 63 +17 +17 1017.8 985.5
09 13.07 ЮЗ 1 н/о н/о +16.8 +9.0 60 +18 +18 1017.9 985.6
10 13.07 З 1 н/о н/о +14.8 +10.2 74 +15 +15 1018.3 986.0
12 13.07 З 3 н/о н/о +13.9 +9.7 76 +13 +13 1019.4 987.0
13 13.07 З 3 н/о н/о +13.1 +10.5 84 +12 +12 1019.5 987.1 +18.3
15 13.07 ЮЗ 2 н/о н/о +11.0 +9.8 92 +10 +10 1019.7 987.3
16 13.07 ЮЗ 1 н/о н/о +10.2 +9.7 97 +10 +10 1019.6 987.2
18 13.07 ЮЗ 2 н/о н/о +8.7 +8.7 100 +7 +7 1019.0 986.6
19 13.07 штиль 0 н/о н/о +7.9 +7.9 100 +7 +7 1018.7 986.3
21 13.07 З 2 н/о н/о +6.7 +6.7 100 +5 +5 1018.2 985.9
22 13.07 З 2 н/о н/о +6.0 +6.0 100 +4 +4 1018.2 985.9
00 14.07 штиль 0 н/о н/о +7.5 +7.5 100 +6 +6 1018.7 986.3
01 14.07 штиль 0 н/о {туман} н/о +10.9 +10.9 100 +10 +10 1018.9 986.5 +5.4
03 14.07 З 3 н/о н/о +16.0 +9.4 65 +16 +16 1018.1 985.8
04 14.07 З 4 н/о н/о +17.0 +9.7 62 +17 +17 1017.5 985.2
06 14.07 З 7 н/о н/о +15.9 +9.8 67 +14 +14 1016.0 983.7
07 14.07 З 6 н/о н/о +16.9 +9.1 60 +16 +16 1015.2 983.0
09 14.07 З 5 н/о н/о +14.3 +10.3 77 +13 +13 1014.9 982.7
10 14.07 СЗ 3 н/о н/о +13.1 +11.0 87 +12 +12 1014.4 982.2
12 14.07 СЗ 3 н/о н/о +11.4 +11.4 100 +9 +9 1014.0 981.8
13 14.07 З 6 н/о н/о +12.5 +12.5 100 +10 +10 1015.1 982.9 +17.6
15 14.07 ЮЗ 6 н/о н/о +11.0 +11.0 100 +8 +8 1016.2 983.9
16 14.07 ЮЗ 3 н/о {туман} н/о +10.9 +10.9 100 +9 +9 1016.5 984.2
18 14.07 ЮЗ 2 н/о н/о +9.3 +7.3 87 +8 +8 1017.0 984.7
19 14.07 З 3 н/о {туман} н/о +8.7 +7.5 92 +6 +6 1017.0 984.7
21 14.07 ЮЗ 2 н/о н/о +8.4 +8.0 97 +7 +7 1017.3 985.0
22 14.07 З 2 н/о н/о +7.2 +7.2 100 +5 +5 1017.8 985.5
00 15.07 ЮЗ 2 н/о н/о +9.1 +9.1 100 +8 +8 1019.6 987.2
01 15.07 ЮЗ 2 н/о {туман} н/о +11.2 +8.2 82 +10 +10 1020.4 988.0 +7.0
03 15.07 ЮЗ 3 н/о н/о +14.2 +8.8 70 +13 +13 1020.6 988.2
04 15.07 ЮЗ 3 н/о н/о +15.2 +9.8 70 +15 +15 1020.2 987.8
06 15.07 Ю 3 н/о н/о +15.2 +8.7 65 +15 +15 1019.0 986.6
07 15.07 ЮЗ 3 н/о н/о +15.6 +8.8 64 +15 +15 1019.0 986.6
09 15.07 ЮЗ 3 н/о н/о +14.9 +9.1 68 +14 +14 1019.4 987.0
10 15.07 З 3 н/о н/о +14.2 +10.4 78 +13 +13 1019.6 987.2
12 15.07 З 2 н/о н/о +13.7 +11.0 84 +13 +13 1020.2 987.8
13 15.07 СЗ 2 н/о н/о +12.8 +11.4 91 +12 +12 1020.1 987.7 +16.5
15 15.07 СЗ 2 н/о н/о +12.3 +12.3 100 +11 +11 1020.2 987.8
16 15.07 СЗ 2 н/о н/о +12.4 +12.4 100 +11 +11 1019.8 987.4
18 15.07 СЗ 3 н/о н/о +12.8 +11.2 90 +12 +12 1019.0 986.6
19 15.07 СЗ 3 н/о н/о +12.8 +10.2 84 +12 +12 1018.2 985.9
21 15.07 СЗ 2 н/о н/о +12.6 +11.0 90 +12 +12 1017.4 985.1
22 15.07 СЗ 3 н/о н/о +12.5 +11.4 93 +11 +11 1017.4 985.1
00 16.07 СЗ 2 н/о н/о +13.2 +11.3 88 +12 +12 1017.8 985.5
01 16.07 СЗ 3 н/о н/о +14.1 +12.0 87 +13 +13 1017.9 985.6 +9.2
03 16.07 З 7 н/о н/о +16.3 +12.7 79 +15 +15 1018.4 986.1
04 16.07 З 7 н/о н/о +16.7 +13.0 79 +15 +15 1017.8 985.5
06 16.07 З 7 н/о н/о +17.8 +12.7 72 +17 +17 1016.5 984.2
07 16.07 З 7 н/о н/о +18.1 +11.4 65 +18 +18 1016.4 984.1
09 16.07 З 4 н/о н/о +15.5 +13.5 88 +14 +14 1017.1 984.8
10 16.07 ЮЗ 4 н/о н/о +14.8 +12.8 88 +14 +14 1017.4 985.1
12 16.07 З 2 н/о н/о +11.8 +11.8 100 +10 +10 1018.8 986.4
13 16.07 СЗ 3 н/о н/о +11.6 +11.6 100 +10 +10 1018.9 986.5 +18.9
15 16.07 ЮЗ 2 н/о н/о +12.2 +12.2 100 +11 +11 1019.0 986.6
16 16.07 З 1 н/о н/о +10.7 +10.7 100 +10 +10 1018.9 986.5
18 16.07 З 2 н/о н/о +10.8 +10.8 100 +10 +10 1018.5 986.2
19 16.07 З 1 н/о н/о +10.8 +10.8 100 +11 +11 1018.4 986.1
21 16.07 СЗ 2 н/о н/о +9.8 +9.8 100 +8 +8 1018.5 986.2
22 16.07 СЗ 2 н/о н/о +9.0 +9.0 100 +7 +7 1019.0 986.6
00 17.07 штиль 0 н/о н/о +9.4 +9.4 100 +8 +8 1020.0 987.6
01 17.07 З 2 н/о в посл. час дождь {туман} н/о +12.3 +12.3 100 +12 +12 1020.5 988.1 +7.2
03 17.07 ЮЗ 1 н/о н/о +15.2 +8.2 63 +17 +17 1020.8 988.4
04 17.07 С 1 н/о н/о +15.8 +7.1 56 +17 +17 1020.1 987.7
06 17.07 СЗ 2 н/о н/о +17.1 +7.7 54 +17 +17 1019.1 986.7
07 17.07 З 2 н/о н/о +17.1 +7.7 54 +17 +17 1018.8 986.4
09 17.07 З 3 н/о н/о +16.0 +7.5 57 +16 +16 1018.9 986.5
10 17.07 З 1 н/о н/о +13.4 +7.6 68 +14 +14 1019.3 986.9
12 17.07 СЗ 3 н/о н/о +12.0 +7.7 75 +11 +11 1019.6 987.2
13 17.07 З 2 н/о н/о +10.7 +7.2 79 +9 +9 1019.6 987.2 +17.7
15 17.07 З 2 н/о н/о +8.8 +7.3 90 +7 +7 1019.2 986.8
16 17.07 штиль 0 н/о н/о +7.6 +7.6 100 +6 +6 1018.9 986.5
18 17.07 штиль 0 н/о н/о +6.2 +6.2 100 +5 +5 1019.0 986.6

 

Местоположение метеостанции Morawa Airport (Западная Австралия, Австралия): широта -29.20 долгота 116.02 высота над уровнем моря 272 м.

В архиве по умолчанию представлена погода в Morawa Airport за последнюю неделю. Архивные данные за месяц целиком и за предыдущие месяцы, начиная с января 2011 года, Вы можете получить, выбрав интересующий диапазон дат из раскрывающегося списка и нажав кнопку "Ввод!".


*Определитесь, кто Вы:
робот инопланетянин человек

Внимание! Время в таблицах - всемирное. Для получения местного времени необходимо прибавить поправку, которая в Morawa Airport равна 8 ч.

Смотрите также архив погоды в соседних городах и на ближайших метеорологических станциях:

Погода в Rottnest Island Lighthouse (Западная Австралия, Австралия) (134 км)
Погода в Dalwallinu (Западная Австралия, Австралия) (136 км)
Погода в Geraldton Airport (Западная Австралия, Австралия) (136 км)
Погода в Mount Magnet Aero (Западная Австралия, Австралия) (214 км)
Погода в Gingin Aero (Западная Австралия, Австралия) (253 км)
Погода в Bullsbrook Pearce Amo (Западная Австралия, Австралия) (275 км)
Погода в Wanneroo (Западная Австралия, Австралия) (286 км)
Погода в Cunderdin Airfield (Западная Австралия, Австралия) (293 км)
Погода в Mount Lawley Perth Metro (Западная Австралия, Австралия) (303 км)
Погода в Perth (Западная Австралия, Австралия) (304 км)

Пояснения к столбцам:

Ветер - указаны скорость ветра в м/с - средняя за 10 мин, порывы в срок и между сроками (в фигурных скобках) и направление, откуда дует ветер: С - северный, СВ - северо-восточный, В - восточный, ЮВ - юго-восточный, Ю - южный, ЮЗ - юго-западный, З - западный, СЗ - северо-западный.
Видимость - горизонтальная дальность видимости в метрах или километрах. При видимости от 1 до 10 км при отсутствии осадков обычно наблюдается дымка, при ухудшении видимости до 1 км и менее - туман. В сухую погоду видимость может ухудшаться дымом, пылью или мглою.
Явления - указаны атмосферные явления, наблюдавшиеся в срок или в последний час перед сроком; фигурными скобками обозначены явления, наблюдавшиеся между сроками (за 1-3 часа до срока); квадратными скобками обозначены град или гололедные отложения с указанием их диаметра в мм.
Облачность - указаны через наклонную черту общая и нижняя облачность в баллах и высота нижней границы облаков в метрах; квадратными скобками обозначены формы облаков: Ci - перистые, Cs - перисто-слоистые, Cc - перисто-кучевые, Ac - высококучевые, As - высокослоистые, Sc - слоисто-кучевые, Ns - слоисто-дождевые, Cu - кучевые, Cb - кучево-дождевые. Подробнее классификацию облаков см. в Атласе облаков (PDF).
T - Температура воздуха - температура, измеренная на высоте 2 м над землей.
Td - Температура точки росы - температура, при понижении до которой содержащийся в воздухе водяной пар достигнет насыщения.
f - Относительная влажность воздуха - влажноcть воздуха, измеренная на высоте 2 м над землей.
Te - Эффективная температура - температура, которую ощущает одетый по сезону человек в тени. Характеристика душности погоды. При расчете учитывается влияние влажности воздуха и скорости ветра на теплоощущения человека.
Tes - Эффективная температура на солнце - температура, которую ощущает человек, с поправкой на солнечный нагрев. Характеристика знойности погоды. Зависит от высоты солнца над горизонтом, облачности и скорости ветра. Ночью, в пасмурную погоду, а также при ветре 12 м/с и более поправка равна нулю.
P - Атмосферное давление - приведенное к уровню моря атмосферное давление.
Po - Атмосферное давление - измеренное на уровне метеостанции атмосферное давление.
Tmin - Минимальная температура - минимум температуры воздуха на высоте 2 м над землей.
Tmax - Максимальная температура - максимум температуры воздуха на высоте 2 м над землей.
R - Количество осадков - Количество выпавших осадков за период времени, мм. При наведении курсора мыши на число - период времени, за который выпало указанное количество осадков.
R24 - Количество осадков - Количество выпавших осадков за 24 часа, мм.
S - Снежный покров - Высота снежного покрова, см. При наведении курсора мыши на число - состояние снежного покрова и степень покрытия местности в баллах.